User: anonymous   Login
Location: Bonn
(50.7330°N, 7.1000°E)
Time: 06:02:29
(UTC+01:00)
Language:

Iridium 84 - Orbit

View from above orbital plane
View from above orbital plane
View from above satellite
View from above satellite

Ground track
Ground track

The orbit data is extracted from the following two-line orbital elements,

1 25530U 98066D   17023.51475743 -.00000037  00000-0 -20212-4 0  9996
2 25530  86.3928  50.4542 0002071  90.3771 269.7662 14.34217815956262
Epoch (UTC): 23 January 2017 12:21:15
Eccentricity: 0.0002071
inclination: 86.3928°
perigee height: 776 km
apogee height: 779 km
right ascension of ascending node: 50.4542°
argument of perigee: 90.3771°
revolutions per day: 14.34217815
mean anomaly at epoch: 269.7662°
orbit number at epoch: 95626

The dashed part of the orbit path shows where the satellite is in the earth's shadow,  

DLR